Time,TemperatureF,DewpointF,PressureIn,WindDirection,WindDirectionDegrees,WindSpeedMPH,WindSpeedGustMPH,Humidity,HourlyPrecipIn,Conditions,Clouds,dailyrainin,SolarRadiationWatts/m^2,SoftwareType,DateUTC
2013-08-03 00:02:00,78.0,74.0,-100.00,SW,216,3.0,-999.0,88,0.00,,,-99.99,0.000000,,2013-08-03 04:02:00,
2013-08-03 00:32:00,77.0,73.0,-100.00,SSE,156,2.0,-999.0,88,0.00,,,-99.99,0.000000,,2013-08-03 04:32:00,
2013-08-03 00:53:00,76.0,73.0,-100.00,ENE,63,1.0,-999.0,90,0.00,,,-99.99,0.000000,,2013-08-03 04:53:00,
2013-08-03 01:02:00,76.0,73.0,-100.00,ENE,63,1.0,-999.0,90,0.00,,,-99.99,0.000000,,2013-08-03 05:02:00,
2013-08-03 01:12:00,75.0,73.0,-100.00,WSW,243,1.0,-999.0,91,0.00,,,-99.99,0.000000,,2013-08-03 05:12:00,
2013-08-03 01:22:00,75.0,73.0,-100.00,WNW,284,1.0,-999.0,92,0.00,,,-99.99,0.000000,,2013-08-03 05:22:00,
2013-08-03 01:32:00,75.0,73.0,-100.00,SW,218,1.0,-999.0,93,0.00,,,-99.99,0.000000,,2013-08-03 05:32:00,
2013-08-03 01:52:00,75.0,73.0,-100.00,WSW,237,2.0,-999.0,94,0.00,,,-99.99,0.000000,,2013-08-03 05:52:00,
2013-08-03 02:02:00,75.0,73.0,-100.00,WSW,246,1.0,-999.0,94,0.00,,,-99.99,0.000000,,2013-08-03 06:02:00,
2013-08-03 02:12:00,75.0,73.0,-100.00,WSW,246,1.0,-999.0,94,0.00,,,-99.99,0.000000,,2013-08-03 06:12:00,
2013-08-03 02:23:00,75.0,73.0,-100.00,South,171,1.0,-999.0,95,0.00,,,-99.99,0.000000,,2013-08-03 06:23:00,
2013-08-03 02:33:00,75.0,73.0,-100.00,SW,228,1.0,-999.0,95,0.00,,,-99.99,0.000000,,2013-08-03 06:33:00,
2013-08-03 02:52:00,75.0,73.0,-100.00,SW,230,1.0,-999.0,95,0.00,,,-99.99,0.000000,,2013-08-03 06:52:00,
2013-08-03 03:02:00,75.0,73.0,-100.00,SW,224,2.0,-999.0,95,0.00,,,-99.99,0.000000,,2013-08-03 07:02:00,
2013-08-03 03:22:00,75.0,73.0,-100.00,SW,227,2.0,-999.0,96,0.00,,,-99.99,0.000000,,2013-08-03 07:22:00,
2013-08-03 03:32:00,75.0,74.0,-100.00,WSW,239,3.0,-999.0,96,0.00,,,-99.99,0.000000,,2013-08-03 07:32:00,
2013-08-03 03:53:00,75.0,74.0,-100.00,WSW,239,3.0,-999.0,96,0.00,,,-99.99,0.000000,,2013-08-03 07:53:00,
2013-08-03 04:22:00,74.0,74.0,-100.00,WSW,257,3.0,-999.0,97,0.00,,,-99.99,0.000000,,2013-08-03 08:22:00,
2013-08-03 04:32:00,75.0,74.0,-100.00,SW,235,3.0,-999.0,97,0.00,,,-99.99,0.000000,,2013-08-03 08:32:00,
2013-08-03 04:52:00,74.0,74.0,-100.00,WSW,242,3.0,-999.0,97,0.00,,,-99.99,0.000000,,2013-08-03 08:52:00,
2013-08-03 05:22:00,74.0,74.0,-100.00,WSW,247,2.0,-999.0,97,0.00,,,-99.99,0.000000,,2013-08-03 09:22:00,
2013-08-03 05:32:00,74.0,73.0,-100.00,SSW,205,2.0,-999.0,97,0.00,,,-99.99,0.000000,,2013-08-03 09:32:00,
2013-08-03 05:53:00,74.0,73.0,-100.00,SSW,197,1.0,-999.0,97,0.00,,,-99.99,0.000000,,2013-08-03 09:53:00,
2013-08-03 06:02:00,74.0,73.0,-100.00,SSW,207,2.0,-999.0,97,0.00,,,-99.99,0.000000,,2013-08-03 10:02:00,
2013-08-03 06:12:00,74.0,73.0,-100.00,SSW,207,2.0,-999.0,97,0.00,,,-99.99,0.000000,,2013-08-03 10:12:00,
2013-08-03 06:32:00,74.0,73.0,-100.00,SW,216,2.0,-999.0,98,0.00,,,-99.99,0.000000,,2013-08-03 10:32:00,
2013-08-03 06:53:00,74.0,73.0,-100.00,SW,220,2.0,-999.0,98,0.00,,,-99.99,0.000000,,2013-08-03 10:53:00,
2013-08-03 07:02:00,74.0,73.0,-100.00,SW,220,2.0,-999.0,98,0.00,,,-99.99,0.000000,,2013-08-03 11:02:00,
2013-08-03 07:12:00,73.0,73.0,-100.00,WSW,243,1.0,-999.0,98,0.00,,,-99.99,1.000000,,2013-08-03 11:12:00,
2013-08-03 07:22:00,73.0,73.0,-100.00,SSW,194,1.0,-999.0,98,0.00,,,-99.99,3.900000,,2013-08-03 11:22:00,
2013-08-03 07:32:00,73.0,73.0,-100.00,SSW,213,2.0,-999.0,98,0.00,,,-99.99,18.700001,,2013-08-03 11:32:00,
2013-08-03 07:53:00,74.0,74.0,-100.00,SW,221,1.0,-999.0,98,0.00,,,-99.99,50.299999,,2013-08-03 11:53:00,
2013-08-03 08:03:00,74.0,74.0,-100.00,SW,221,1.0,-999.0,98,0.00,,,-99.99,50.299999,,2013-08-03 12:03:00,
2013-08-03 08:12:00,75.0,75.0,-100.00,SE,144,1.0,-999.0,98,0.00,,,-99.99,97.800003,,2013-08-03 12:12:00,
2013-08-03 08:22:00,77.0,76.0,-100.00,NW,310,1.0,-999.0,98,0.00,,,-99.99,99.800003,,2013-08-03 12:22:00,
2013-08-03 08:43:00,77.0,76.0,-100.00,SW,221,2.0,-999.0,97,0.00,,,-99.99,105.099998,,2013-08-03 12:43:00,
2013-08-03 08:52:00,77.0,77.0,-100.00,SW,232,1.0,-999.0,97,0.00,,,-99.99,75.199997,,2013-08-03 12:52:00,
2013-08-03 09:12:00,77.0,77.0,-100.00,SW,220,1.0,-999.0,97,0.00,,,-99.99,65.000000,,2013-08-03 13:12:00,
2013-08-03 09:43:00,80.0,79.0,-100.00,WSW,241,4.0,-999.0,97,0.00,,,-99.99,384.200012,,2013-08-03 13:43:00,
2013-08-03 09:52:00,81.0,80.0,-100.00,WSW,251,5.0,-999.0,95,0.00,,,-99.99,437.100006,,2013-08-03 13:52:00,
2013-08-03 10:13:00,83.0,80.0,-100.00,West,265,5.0,-999.0,93,0.00,,,-99.99,479.799988,,2013-08-03 14:13:00,
2013-08-03 10:22:00,84.0,80.0,-100.00,West,281,6.0,-999.0,87,0.00,,,-99.99,516.900024,,2013-08-03 14:22:00,
2013-08-03 10:33:00,85.0,79.0,-100.00,West,281,6.0,-999.0,81,0.00,,,-99.99,564.400024,,2013-08-03 14:33:00,
2013-08-03 10:42:00,85.0,79.0,-100.00,West,281,6.0,-999.0,81,0.00,,,-99.99,564.400024,,2013-08-03 14:42:00,
2013-08-03 10:52:00,86.0,77.0,-100.00,WNW,282,6.0,-999.0,75,0.00,,,-99.99,496.200012,,2013-08-03 14:52:00,
2013-08-03 11:23:00,87.0,77.0,-100.00,West,262,6.0,-999.0,71,0.00,,,-99.99,726.000000,,2013-08-03 15:23:00,
2013-08-03 11:53:00,88.0,77.0,-100.00,West,270,5.0,-999.0,69,0.00,,,-99.99,816.000000,,2013-08-03 15:53:00,
2013-08-03 12:23:00,87.0,75.0,-100.00,WNW,290,6.0,-999.0,67,0.00,,,-99.99,303.100006,,2013-08-03 16:23:00,
2013-08-03 12:53:00,88.0,75.0,-100.00,WNW,301,4.0,-999.0,65,0.00,,,-99.99,299.500000,,2013-08-03 16:53:00,
2013-08-03 13:03:00,88.0,75.0,-100.00,WNW,301,4.0,-999.0,65,0.00,,,-99.99,299.500000,,2013-08-03 17:03:00,
2013-08-03 13:22:00,89.0,76.0,-100.00,WSW,257,4.0,-999.0,64,0.00,,,-99.99,637.799988,,2013-08-03 17:22:00,
2013-08-03 13:52:00,84.0,73.0,-100.00,WNW,293,16.0,-999.0,69,0.41,,,-99.99,94.000000,,2013-08-03 17:52:00,
2013-08-03 14:43:00,78.0,75.0,-100.00,SSE,156,2.0,-999.0,91,0.00,,,-99.99,762.000000,,2013-08-03 18:43:00,
2013-08-03 14:53:00,81.0,78.0,-100.00,WSW,251,9.0,-999.0,88,0.00,,,-99.99,842.000000,,2013-08-03 18:53:00,
2013-08-03 15:02:00,81.0,78.0,-100.00,WSW,251,9.0,-999.0,88,0.00,,,-99.99,842.000000,,2013-08-03 19:02:00,
2013-08-03 15:22:00,86.0,76.0,-100.00,West,269,6.0,-999.0,71,0.00,,,-99.99,850.000000,,2013-08-03 19:22:00,
2013-08-03 15:32:00,88.0,76.0,-100.00,WSW,244,5.0,-999.0,67,0.00,,,-99.99,828.000000,,2013-08-03 19:32:00,
2013-08-03 15:53:00,88.0,76.0,-100.00,SW,236,6.0,-999.0,67,0.00,,,-99.99,469.500000,,2013-08-03 19:53:00,
2013-08-03 16:02:00,89.0,76.0,-100.00,WSW,251,8.0,-999.0,66,0.00,,,-99.99,629.299988,,2013-08-03 20:02:00,
2013-08-03 16:22:00,89.0,76.0,-100.00,West,277,8.0,-999.0,65,0.00,,,-99.99,509.299988,,2013-08-03 20:22:00,
2013-08-03 16:32:00,89.0,76.0,-100.00,West,262,6.0,-999.0,65,0.00,,,-99.99,389.200012,,2013-08-03 20:32:00,
2013-08-03 16:52:00,87.0,75.0,-100.00,WSW,256,12.0,-999.0,66,0.03,,,-99.99,203.399994,,2013-08-03 20:52:00,
2013-08-03 17:52:00,85.0,79.0,-100.00,SSW,203,4.0,-999.0,82,0.00,,,-99.99,482.299988,,2013-08-03 21:52:00,
2013-08-03 18:22:00,83.0,76.0,-100.00,SSW,193,9.0,-999.0,79,0.00,,,-99.99,128.899994,,2013-08-03 22:22:00,
2013-08-03 18:33:00,81.0,76.0,-100.00,SSW,197,9.0,-999.0,84,0.00,,,-99.99,179.800003,,2013-08-03 22:33:00,
2013-08-03 18:52:00,82.0,77.0,-100.00,SSW,199,8.0,-999.0,85,0.00,,,-99.99,172.100006,,2013-08-03 22:52:00,
2013-08-03 19:02:00,81.0,76.0,-100.00,South,183,6.0,-999.0,84,0.00,,,-99.99,77.400002,,2013-08-03 23:02:00,
2013-08-03 19:12:00,81.0,76.0,-100.00,South,183,6.0,-999.0,84,0.00,,,-99.99,77.400002,,2013-08-03 23:12:00,
2013-08-03 19:22:00,80.0,76.0,-100.00,SSW,203,8.0,-999.0,85,0.00,,,-99.99,19.600000,,2013-08-03 23:22:00,
2013-08-03 19:32:00,78.0,75.0,-100.00,SSW,203,7.0,-999.0,89,0.00,,,-99.99,36.799999,,2013-08-03 23:32:00,
2013-08-03 19:52:00,78.0,75.0,-100.00,SSW,194,6.0,-999.0,91,0.00,,,-99.99,31.200001,,2013-08-03 23:52:00,
2013-08-03 20:03:00,78.0,75.0,-100.00,SSW,192,5.0,-999.0,92,0.00,,,-99.99,19.000000,,2013-08-04 00:03:00,
2013-08-03 20:22:00,77.0,75.0,-100.00,SSW,192,6.0,-999.0,93,0.00,,,-99.99,15.100000,,2013-08-04 00:22:00,
2013-08-03 20:32:00,77.0,75.0,-100.00,South,180,5.0,-999.0,93,0.00,,,-99.99,7.500000,,2013-08-04 00:32:00,
2013-08-03 20:53:00,76.0,74.0,-100.00,South,184,5.0,-999.0,93,0.00,,,-99.99,0.400000,,2013-08-04 00:53:00,
2013-08-03 21:02:00,76.0,74.0,-100.00,South,181,4.0,-999.0,94,0.00,,,-99.99,0.000000,,2013-08-04 01:02:00,
2013-08-03 21:22:00,76.0,74.0,-100.00,South,181,3.0,-999.0,94,0.00,,,-99.99,0.000000,,2013-08-04 01:22:00,
2013-08-03 21:53:00,75.0,74.0,-100.00,South,174,2.0,-999.0,95,0.00,,,-99.99,0.000000,,2013-08-04 01:53:00,
2013-08-03 22:02:00,75.0,74.0,-100.00,South,174,2.0,-999.0,95,0.00,,,-99.99,0.000000,,2013-08-04 02:02:00,
2013-08-03 22:22:00,75.0,74.0,-100.00,SSW,197,2.0,-999.0,95,0.00,,,-99.99,0.000000,,2013-08-04 02:22:00,
2013-08-03 22:52:00,75.0,74.0,-100.00,SW,215,3.0,-999.0,96,0.00,,,-99.99,0.000000,,2013-08-04 02:52:00,
2013-08-03 23:22:00,75.0,74.0,-100.00,WSW,255,4.0,-999.0,96,0.00,,,-99.99,0.000000,,2013-08-04 03:22:00,
2013-08-03 23:32:00,75.0,74.0,-100.00,SW,236,3.0,-999.0,97,0.00,,,-99.99,0.000000,,2013-08-04 03:32:00,
2013-08-03 23:52:00,75.0,74.0,-100.00,SW,220,3.0,-999.0,97,0.00,,,-99.99,0.000000,,2013-08-04 03:52:00,